Effective Sunday, March 17, 2024, the National Weather Service National Data Buoy Center will discontinue its Dial-A-Buoy Interactive Voice Response system. For more information, see Service Change Notice 24-06 (PDF).

Station OCIM2 - 8570283 - Ocean City Inlet, MD Image indicating link to RSS feed of recent meteorological observations for station OCIM2


Conditions at OCIM2 as of
(5:48 pm EST)
2248 GMT on 03/03/2024:
     

Click on the graph icon in the table below to see a time series plot of the last five days of that observation.

5-day plot - Wind Direction Wind Direction (WDIR):SSW ( 200 deg true )
5-day plot - Wind Speed Wind Speed (WSPD): 6.0 kts
5-day plot - Wind Gust Wind Gust (GST): 7.0 kts
5-day plot - Atmospheric Pressure Atmospheric Pressure (PRES):30.19 in
5-day plot - Air Temperature Air Temperature (ATMP): 48.0 °F
5-day plot - Water Temperature Water Temperature (WTMP): 45.9 °F
5-day plot - Wind Chill Wind Chill (CHILL): 44.8 °F
5-day plot - Wind Speed at 10 Meters Wind Speed at 10 meters (WSPD10M): 5.8 kts
5-day plot - Wind Speed at 20 Meters Wind Speed at 20 meters (WSPD20M): 7.8 kts
5-day plot -  Wind Speed, Wind Gust and Atmospheric Pressure Combined plot of Wind Speed, Gust, and Air Pressure
NOS Water Level Observation Network Water Level
Previous observations
TIME
(EST)
5-day plot - Wind Direction
WDIR
 
5-day plot - Wind Speed
WSPD
kts
5-day plot - Wind Gust
GST
kts
5-day plot - Wave Height
WVHT
ft
5-day plot - Dominant Wave Period
DPD
sec
5-day plot - Average Wave Period
APD
sec
5-day plot - Mean Wave Direction
MWD
 
5-day plot - Atmospheric Pressure
PRES
in
5-day plot - Pressure Tendency
PTDY
in
5-day plot - Air Temperature
ATMP
°F
5-day plot - Water Temperature
WTMP
°F
5-day plot - Dew Point
DEWP
°F
5-day plot - Salinity
SAL
psu
5-day plot - Visibility
VIS
nmi
5-day plot - Tide (above MLLW)
TIDE
ft
2024-03-03 05:42 pmSSW 7.0 8.0----30.18- 48.2 45.9----
2024-03-03 05:36 pmSSW 8.0 8.9----30.18- 48.2 45.7----
2024-03-03 05:30 pmSSW 8.0 8.9----30.18- 48.4 45.7----
2024-03-03 05:24 pmSSW 7.0 8.0----30.18- 48.6 45.7----
2024-03-03 05:18 pmSSW 5.1 6.0----30.17- 48.6 45.7----
2024-03-03 05:12 pmSSW 5.1 6.0----30.17- 48.6 45.9----
2024-03-03 05:06 pmSSW 6.0 8.0----30.17- 48.7 45.7----
2024-03-03 05:00 pmSSW 7.0 8.0----30.17+0.00 48.9 45.7----
2024-03-03 04:54 pmSSW 5.1 7.0----30.16- 48.7 45.7----
2024-03-03 04:48 pmSSW 7.0 8.0----30.16- 48.9 45.7----
2024-03-03 04:42 pmSSW 5.1 7.0----30.16- 49.5 45.7----
2024-03-03 04:36 pmSSW 5.1 6.0----30.16- 49.8 45.7----
2024-03-03 04:30 pmSSW 5.1 5.1----30.16-- 45.7----
2024-03-03 04:24 pm S 5.1 6.0----30.16-- 45.7----
2024-03-03 04:18 pmSSW 5.1 6.0----30.16- 49.5 45.7----
2024-03-03 04:12 pm S 2.9 5.1----30.16- 50.4 45.7----
2024-03-03 04:06 pm S 2.9 4.1----30.16- 50.5 45.7----
2024-03-03 04:00 pm S 2.9 5.1----30.16-0.02- 45.7----
2024-03-03 03:54 pm S 2.9 5.1----30.16-- 45.7----
2024-03-03 03:48 pm S 2.9 5.1----30.16- 50.0 45.7----
2024-03-03 03:42 pm S 5.1 6.0----30.16- 50.2 45.7----
2024-03-03 03:36 pmSSW 4.1 6.0----30.16- 49.5 45.5----
2024-03-03 03:30 pm--------- 49.8 45.5----
2024-03-03 03:24 pm--------- 49.8 45.5----
2024-03-03 03:18 pmSSW 2.9 4.1----30.15- 50.2 45.5----
2024-03-03 03:12 pm S 2.9 5.1----30.16- 49.3 45.5----
2024-03-03 03:06 pmSSW 5.1 6.0----30.16- 49.3 45.5----
2024-03-03 03:00 pm S 4.1 5.1----30.16-0.04 50.2-----
2024-03-03 02:54 pm S 4.1 5.1----30.16- 49.6-----
2024-03-03 02:48 pm S 4.1 6.0----30.16- 49.6 45.3----
2024-03-03 02:42 pmSSW 6.0 7.0----30.17- 49.1 45.5----
2024-03-03 02:36 pm S 4.1 6.0----30.16- 49.8 45.5----
2024-03-03 02:30 pm S 5.1 7.0----30.16-- 45.5----
2024-03-03 02:24 pm S 6.0 7.0----30.16-- 45.5----
2024-03-03 02:18 pm S 2.9 5.1----30.16-------
2024-03-03 02:12 pm S 5.1 6.0----30.16-------
2024-03-03 02:06 pm S 5.1 6.0----30.16-------
2024-03-03 02:00 pm S 5.1 7.0----30.16-0.04- 45.3----
2024-03-03 01:54 pm S 5.1 8.0----30.16-- 45.3----
2024-03-03 01:48 pm--------- 50.2-----
2024-03-03 01:42 pm--------- 49.8-----
2024-03-03 01:36 pm--------- 50.2-----
2024-03-03 01:30 pm S 7.0 8.9----30.17- 50.2 45.3----
2024-03-03 01:24 pm S 5.1 8.0----30.17- 51.1 45.1----
2024-03-03 01:18 pm S 5.1 8.0----30.17- 50.9 45.1----
2024-03-03 01:12 pm S 5.1 7.0----30.17- 50.9 45.1----
2024-03-03 01:06 pm S 5.1 7.0----30.18- 52.0 45.1----
2024-03-03 01:00 pm S 6.0 8.0----30.18-0.03 52.2 45.1----
2024-03-03 12:54 pm S 5.1 6.0----30.18- 52.2 45.1----
2024-03-03 12:48 pm S 5.1 7.0----30.18- 51.4 45.1----
2024-03-03 12:42 pm S 5.1 7.0----30.19- 51.3 45.1----
2024-03-03 12:36 pm S 5.1 8.0----30.19- 51.1 45.1----
2024-03-03 12:30 pm S 5.1 7.0----30.19- 50.5 45.1----
2024-03-03 12:24 pm S 2.9 5.1----30.19- 50.9 45.1----
2024-03-03 12:18 pm S 5.1 6.0----30.19-- 45.1----
2024-03-03 12:12 pm S 4.1 5.1----30.19-- 45.1----
2024-03-03 12:06 pmSSW 2.9 5.1----30.20-- 45.1----
2024-03-03 12:00 pm S 4.1 5.1----30.20-- 45.1----
2024-03-03 11:54 amSSE 2.9 4.1----30.20-- 45.1----
2024-03-03 11:48 am S 2.9 5.1----30.20- 51.8 45.1----
2024-03-03 11:42 amSSE 5.1 6.0----30.21- 50.0 45.3----
2024-03-03 11:36 am SE 2.9 5.1----30.20- 54.5 45.3----
2024-03-03 11:30 am SE 4.1 5.1----30.21- 53.1 45.5----
2024-03-03 11:24 amESE 6.0 7.0----30.20- 51.8 45.5----
2024-03-03 11:18 am SE 5.1 6.0----30.21- 52.3 45.7----
2024-03-03 11:12 am SE 5.1 8.0----30.21- 51.6 45.9----
2024-03-03 11:06 am SE 4.1 6.0----30.21- 52.7 46.0----
2024-03-03 11:00 am E 5.1 6.0----30.20+0.01 54.3 46.0----
2024-03-03 10:54 amESE 4.1 4.1----30.20- 54.1 46.0----
2024-03-03 10:48 am E 1.9 5.1----30.20- 54.9 46.0----
2024-03-03 10:42 amNNE 1.9 2.9----30.20- 55.0 46.2----
2024-03-03 10:36 am NE 2.9 2.9----30.20- 54.5 46.2----
2024-03-03 10:30 amNNE 1.9 2.9----30.20- 54.0 46.4----
2024-03-03 10:24 am N 5.1 6.0----30.20- 53.2 46.8----
2024-03-03 10:18 am N 4.1 5.1----30.21- 52.5 46.6----
2024-03-03 10:12 am N 5.1 6.0----30.21- 52.5 46.9----
2024-03-03 10:06 am N 5.1 7.0----30.21- 52.0 46.9----
2024-03-03 10:00 am N 4.1 6.0----30.21+0.04 51.6 46.9----
2024-03-03 09:54 am N 5.1 7.0----30.21- 51.1 46.8----
2024-03-03 09:48 amNNE 4.1 6.0----30.21- 50.9 46.8----
2024-03-03 09:42 amNNE 5.1 6.0----30.21- 50.4 46.8----
2024-03-03 09:36 amNNE 5.1 6.0----30.21- 50.2 46.6----
2024-03-03 09:30 amNNE 5.1 5.1----30.21-------
2024-03-03 09:24 amNNE 4.1 5.1----30.21-------
2024-03-03 09:18 amNNE 4.1 4.1----30.21-- 46.6----
2024-03-03 09:12 amNNE 2.9 4.1----30.21-- 46.6----
2024-03-03 09:06 amNNE 1.0 1.9----30.21-- 46.4----
2024-03-03 09:00 am N 1.0 1.9------ 49.3 46.4----
2024-03-03 08:54 amNNW 1.0 1.9------ 49.1 46.4----
2024-03-03 08:48 am NW 1.9 4.1----30.20-- 46.4----
2024-03-03 08:42 am NW 1.9 1.9----30.20-- 46.2----
2024-03-03 08:36 am NW 2.9 4.1----30.19-- 46.2----
2024-03-03 08:30 amNNW 2.9 4.1----30.19-- 46.2----
2024-03-03 08:24 amNNW 2.9 4.1----30.19-- 46.0----
2024-03-03 08:18 amNNW 5.1 5.1----30.19- 46.4 46.0----
2024-03-03 08:12 amNNW 5.1 6.0----30.19- 46.4 46.0----
2024-03-03 08:06 amNNW 4.1 5.1----30.19- 46.0 45.9----
2024-03-03 08:00 amNNW 4.1 5.1----30.19+0.06 45.9-----
2024-03-03 07:54 am NW 2.9 5.1----30.19- 45.5-----
2024-03-03 07:48 am NW 4.1 5.1----30.18-- 45.7----
2024-03-03 07:42 am NW 4.1 5.1----30.18-- 45.7----
2024-03-03 07:36 am NW 4.1 5.1----30.18-- 45.5----
2024-03-03 07:30 am---------- 45.5----
2024-03-03 07:24 am---------- 45.3----
2024-03-03 07:18 am NW 2.9 4.1----30.17- 44.4 45.3----
2024-03-03 07:12 am NW 4.1 5.1----30.17- 44.4 45.3----
2024-03-03 07:06 amWNW 2.9 2.9----30.17- 44.4 45.1----
2024-03-03 07:00 am NW 2.9 5.1----30.17+0.05 44.6 45.0----
2024-03-03 06:54 am NW 2.9 4.1----30.16- 44.6 45.0----
2024-03-03 06:48 am NW 2.9 5.1----30.16- 44.8 45.0----
2024-03-03 06:42 am W 1.9 2.9----30.16- 44.8 45.0----
2024-03-03 06:36 amWNW 1.9 2.9----30.16- 45.1 44.8----
2024-03-03 06:30 amWNW 1.9 4.1----30.16- 45.1 44.8----
2024-03-03 06:24 am NW 1.9 2.9----30.16- 45.1 44.8----
2024-03-03 06:18 am NW 1.0 1.9----30.15- 45.0 44.8----
2024-03-03 06:12 amWNW 1.9 1.9----30.15- 44.8 44.8----
2024-03-03 06:06 amWNW 1.9 1.9----30.15- 44.6 44.8----
2024-03-03 06:00 amWNW 1.9 1.9----30.15+0.04- 44.8----
2024-03-03 05:54 am W 1.0 1.0----30.14-- 44.8----
2024-03-03 05:48 am W 1.0 1.0----30.14- 45.1 44.8----
2024-03-03 05:42 amWSW 1.0 1.9----30.14- 45.1 44.8----
2024-03-03 05:36 am- 0.0 1.0----30.14- 44.8 44.8----
2024-03-03 05:30 am W 1.0 1.9----30.14- 45.0 44.8----
2024-03-03 05:24 amWNW 1.9 1.9----30.14- 45.1 44.8----
2024-03-03 05:18 am W 1.0 1.0----30.14- 45.0 44.8----
2024-03-03 05:12 am W 1.0 1.9----30.14- 45.1 45.0----
2024-03-03 05:06 am W 1.9 1.9----30.14- 45.7 45.0----
2024-03-03 05:00 amWNW 1.9 1.9----30.13+0.04 46.0 45.0----
2024-03-03 04:54 am NW 1.0 1.9----30.13- 46.2 44.8----
2024-03-03 04:48 amWNW 1.0 1.9----30.13- 46.4 44.8----
2024-03-03 04:42 am NW 1.0 1.9----30.13- 46.4 45.0----
2024-03-03 04:36 am NW 1.9 1.9----30.13- 46.4 45.0----
2024-03-03 04:30 am NW 1.9 2.9----30.13- 46.4 44.8----
2024-03-03 04:24 amNNW 1.9 1.9----30.13- 46.4 45.0----
2024-03-03 04:18 am NW 1.9 2.9----30.12- 46.6 44.8----
2024-03-03 04:12 am NW 1.9 2.9----30.12- 46.8 44.8----
2024-03-03 04:06 amWNW 4.1 6.0----30.12- 46.8 44.8----
2024-03-03 04:00 am W 4.1 4.1----30.12+0.04 46.6 44.8----
2024-03-03 03:54 am W 2.9 2.9----30.12- 45.9 44.8----
2024-03-03 03:48 am W 2.9 2.9----30.12- 45.9 44.8----
2024-03-03 03:42 amWSW 4.1 5.1----30.12- 46.2 44.8----
2024-03-03 03:36 am SW 5.1 6.0----30.11- 46.2 45.0----
2024-03-03 03:30 am SW 5.1 5.1----30.11- 46.0 45.0----
2024-03-03 03:24 am SW 5.1 5.1----30.11- 46.4 45.0----
2024-03-03 03:18 am SW 5.1 5.1----30.11- 46.2 45.0----
2024-03-03 03:12 am SW 1.9 2.9----30.11- 46.4 45.0----
2024-03-03 03:06 am W 1.9 1.9----30.10- 47.1 45.0----
2024-03-03 03:00 amWSW 1.9 1.9----30.10+0.03 47.7 45.0----
2024-03-03 02:54 am W 1.9 2.9----30.10- 48.4 45.0----
2024-03-03 02:48 am W 1.9 2.9----30.10- 48.4 45.0----
2024-03-03 02:42 amWNW 4.1 5.1----30.10- 48.4 45.0----
2024-03-03 02:36 amNNW 5.1 7.0----30.10- 48.6 45.0----
2024-03-03 02:30 amNNW 5.1 5.1----30.09- 48.6 45.0----
2024-03-03 02:24 amNNW 5.1 5.1----30.09- 48.4 45.0----
2024-03-03 02:18 amNNW 6.0 7.0----30.09- 48.7 45.0----
2024-03-03 02:12 amNNW 6.0 8.9----30.09- 48.6 45.0----
2024-03-03 02:06 amNNW 7.0 8.9----30.10- 48.7 45.0----
2024-03-03 02:00 amNNW 7.0 9.9----30.09+0.03 48.9 45.0----
2024-03-03 01:54 amNNW 7.0 8.9----30.09- 48.9 45.0----
2024-03-03 01:48 amNNW 8.0 11.1----30.09- 48.7 45.0----
2024-03-03 01:42 amNNW 9.9 14.0----30.09- 49.1 45.0----
2024-03-03 01:36 amNNW 8.9 12.0----30.09- 49.1 45.0----
2024-03-03 01:30 amNNW 8.9 12.0----30.09- 49.1 45.0----
2024-03-03 01:24 amNNW 8.9 11.1----30.08- 49.1 45.0----
2024-03-03 01:18 amNNW 9.9 11.1----30.08- 49.1 45.0----
2024-03-03 01:12 amNNW 8.9 11.1----30.08- 48.9 45.0----
2024-03-03 01:06 amNNW 8.9 11.1----30.08- 48.9 45.0----
2024-03-03 01:00 amNNW 9.9 13.0----30.08+0.02 49.1 45.0----
2024-03-03 12:54 amNNW 11.1 14.0----30.08- 49.1 45.0----
2024-03-03 12:48 amNNW 12.0 15.9----30.07- 49.3 45.0----
2024-03-03 12:42 amNNW 11.1 15.0----30.08- 49.1 45.0----
2024-03-03 12:36 amNNW 11.1 15.0----30.08- 49.3 45.0----
2024-03-03 12:30 amNNW 11.1 13.0----30.08- 49.3 45.0----
2024-03-03 12:24 amNNW 11.1 13.0----30.07- 49.3 45.0----
2024-03-03 12:18 amNNW 8.9 12.0----30.07- 49.3 45.0----
2024-03-03 12:12 amNNW 9.9 13.0----30.07- 49.3 45.0----
2024-03-03 12:06 amNNW 11.1 14.0----30.07- 49.5 45.0----
2024-03-03 12:00 am NW 11.1 13.0----30.07+0.02 49.6 45.1----
2024-03-02 11:54 pm NW 9.9 14.0----30.07- 49.6 45.1----
2024-03-02 11:48 pm NW 7.0 9.9----30.07- 49.6 45.1----
2024-03-02 11:42 pm NW 8.9 13.0----30.07- 49.8 45.1----
2024-03-02 11:36 pm NW 8.0 11.1----30.07- 49.8 45.1----
2024-03-02 11:30 pm NW 7.0 9.9----30.06- 49.8 45.1----
2024-03-02 11:24 pm NW 8.9 13.0----30.06- 49.8 45.3----
2024-03-02 11:18 pm NW 8.0 13.0----30.06- 49.8 45.3----
2024-03-02 11:12 pm NW 11.1 13.0----30.06- 50.2 45.3----
2024-03-02 11:06 pm NW 8.9 12.0----30.06- 50.2 45.5----
2024-03-02 11:00 pm NW 8.9 13.0----30.06+0.03 50.4 45.5----
2024-03-02 10:54 pm NW 7.0 9.9----30.06- 50.4 45.5----
2024-03-02 10:48 pmWNW 8.9 12.0----30.06- 50.5 45.7----
2024-03-02 10:42 pm NW 8.0 12.0----30.06- 50.5 46.0----
2024-03-02 10:36 pm NW 8.9 12.0----30.06- 50.7 46.4----
2024-03-02 10:30 pm NW 8.9 13.0----30.06- 50.7 46.8----
2024-03-02 10:24 pm NW 7.0 8.9----30.06- 51.1 46.9----
2024-03-02 10:18 pm NW 8.9 14.0----30.06- 51.3 47.3----
2024-03-02 10:12 pmNNW 6.0 8.9----30.06- 51.3 47.3----
2024-03-02 10:06 pmWNW 5.1 7.0----30.06- 51.6 47.5----
2024-03-02 10:00 pmWNW 6.0 8.0----30.06+0.03 51.6 47.5----
2024-03-02 09:54 pm NW 8.9 12.0----30.06- 52.0 47.5----
2024-03-02 09:48 pmWNW 7.0 9.9----30.06- 52.0 47.5----
2024-03-02 09:42 pm NW 9.9 12.0----30.06- 52.2 47.5----
2024-03-02 09:36 pmWNW 8.9 13.0----30.05- 52.3 47.3----
2024-03-02 09:30 pm NW 5.1 8.0----30.05- 52.5 47.3----
2024-03-02 09:24 pm NW 7.0 11.1----30.05- 52.5 47.3----
2024-03-02 09:18 pm NW 6.0 8.9----30.05- 52.7 47.3----
2024-03-02 09:12 pm NW 8.9 12.0----30.05- 52.9 47.3----
2024-03-02 09:06 pm NW 9.9 13.0----30.05- 52.9 47.3----
2024-03-02 09:00 pm NW 8.0 11.1----30.05+0.03 53.1 47.3----
2024-03-02 08:54 pm NW 8.0 12.0----30.05- 53.1 47.1----
2024-03-02 08:48 pmWNW 8.9 12.0----30.05- 53.2 47.1----
2024-03-02 08:42 pm NW 11.1 15.0----30.04- 53.4 47.1----
2024-03-02 08:36 pmNNW 8.9 12.0----30.04- 53.8 47.1----
2024-03-02 08:30 pmNNW 8.0 12.0----30.04- 54.0 47.1----
2024-03-02 08:24 pmNNW 8.9 11.1----30.04- 54.1 46.9----
2024-03-02 08:18 pmNNW 9.9 12.0----30.04- 54.3 46.9----
2024-03-02 08:12 pmNNW 6.0 8.0----30.03- 54.5 46.9----
2024-03-02 08:06 pm NW 6.0 7.0----30.04- 54.5 46.9----
2024-03-02 08:00 pm NW 5.1 7.0----30.03+0.02 54.7 46.8----
2024-03-02 07:54 pm NW 6.0 8.0----30.03- 54.9 46.8----
2024-03-02 07:48 pm NW 6.0 8.0----30.03- 55.0 46.8----
2024-03-02 07:42 pmWNW 8.9 12.0----30.03- 55.2 46.6----
2024-03-02 07:36 pm NW 6.0 8.0----30.03- 54.7 46.6----
2024-03-02 07:30 pm NW 5.1 8.0----30.03- 54.5 46.4----
2024-03-02 07:24 pmWNW 5.1 8.0----30.03- 54.5 46.4----
2024-03-02 07:18 pmWNW 5.1 6.0----30.03- 54.3 46.4----
2024-03-02 07:12 pmWNW 5.1 6.0----30.03- 54.5 46.4----
2024-03-02 07:06 pmWNW 5.1 6.0----30.03- 54.3 46.2----
2024-03-02 07:00 pmWNW 4.1 6.0----30.03+0.01 54.7 46.2----
2024-03-02 06:54 pmWNW 5.1 6.0----30.03- 54.7 46.0----
2024-03-02 06:48 pmWNW 5.1 6.0----30.02-- 46.0----
2024-03-02 06:42 pmWNW 5.1 7.0----30.02-- 46.0----
2024-03-02 06:36 pmWNW 5.1 6.0----30.02-- 46.0----
2024-03-02 06:30 pmWNW 6.0 8.0----30.02- 55.2 46.0----
2024-03-02 06:24 pmWNW 7.0 8.0----30.02- 55.0 45.9----
2024-03-02 06:00 pmWNW 8.0 8.9----30.02- 56.5 45.7----
2024-03-02 05:54 pmWNW 6.0 8.0----30.01- 56.3 45.7----